Time,TemperatureF,DewpointF,PressureIn,WindDirection,WindDirectionDegrees,WindSpeedMPH,WindSpeedGustMPH,Humidity,HourlyPrecipIn,Conditions,Clouds,dailyrainin,SolarRadiationWatts/m^2,SoftwareType,DateUTC
2013-07-17 00:04:00,77.7,58.1,30.18,SE,135,1.1,2.3,51,0.00,CLR,SCT,0.00,0.0,WeatherDisplay:10.37,2013-07-17 05:04:00,
2013-07-17 00:09:00,77.7,58.7,30.18,ESE,112,1.4,2.3,52,0.00,CLR,SCT,0.00,0.0,WeatherDisplay:10.37,2013-07-17 05:09:00,
2013-07-17 00:14:00,77.5,58.5,30.18,East,90,1.6,3.5,52,0.00,CLR,SCT,0.00,0.0,WeatherDisplay:10.37,2013-07-17 05:14:00,
2013-07-17 00:19:00,77.5,58.5,30.18,ESE,112,1.6,2.3,52,0.00,CLR,SCT,0.00,0.0,WeatherDisplay:10.37,2013-07-17 05:19:00,
2013-07-17 00:24:00,77.5,60.6,30.18,SW,225,0.0,1.4,56,0.00,CLR,SCT,0.00,0.0,WeatherDisplay:10.37,2013-07-17 05:24:00,
2013-07-17 00:29:00,77.4,60.9,30.18,SSE,158,1.1,3.5,57,0.00,CLR,SCT,0.00,0.0,WeatherDisplay:10.37,2013-07-17 05:29:00,
2013-07-17 00:35:00,77.2,59.8,30.18,SSE,158,1.1,2.3,55,0.00,CLR,SCT,0.00,0.0,WeatherDisplay:10.37,2013-07-17 05:35:00,
2013-07-17 00:40:00,77.2,60.3,30.18,ESE,112,0.0,2.3,56,0.00,CLR,SCT,0.00,0.0,WeatherDisplay:10.37,2013-07-17 05:40:00,
2013-07-17 00:45:00,77.0,60.1,30.18,ESE,112,1.6,2.3,56,0.00,CLR,SCT,0.00,0.0,WeatherDisplay:10.37,2013-07-17 05:45:00,
2013-07-17 00:50:00,76.8,59.9,30.18,ESE,112,1.4,1.4,56,0.00,CLR,SCT,0.00,0.0,WeatherDisplay:10.37,2013-07-17 05:50:00,
2013-07-17 00:55:00,76.8,59.9,30.15,ESE,112,2.0,2.3,56,0.00,CLR,SCT,0.00,0.0,WeatherDisplay:10.37,2013-07-17 05:55:00,
2013-07-17 01:00:00,76.6,60.3,30.15,ESE,112,1.1,2.9,57,0.00,CLR,SCT,0.00,0.0,WeatherDisplay:10.37,2013-07-17 06:00:00,
2013-07-17 01:06:00,76.5,60.1,30.15,ESE,112,1.4,2.3,57,0.00,CLR,SCT,0.00,0.0,WeatherDisplay:10.37,2013-07-17 06:06:00,
2013-07-17 01:11:00,76.5,62.0,30.15,SSE,158,0.0,1.4,61,0.00,CLR,SCT,0.00,0.0,WeatherDisplay:10.37,2013-07-17 06:11:00,
2013-07-17 01:16:00,76.3,61.4,30.15,ESE,112,1.1,2.3,60,0.00,CLR,SCT,0.00,0.0,WeatherDisplay:10.37,2013-07-17 06:16:00,
2013-07-17 01:21:00,76.3,61.4,30.18,SSW,202,2.4,2.4,60,0.00,CLR,SCT,0.00,0.0,WeatherDisplay:10.37,2013-07-17 06:21:00,
2013-07-17 01:26:00,76.3,62.3,30.18,SSW,202,2.2,2.3,62,0.00,CLR,SCT,0.00,0.0,WeatherDisplay:10.37,2013-07-17 06:26:00,
2013-07-17 01:31:00,76.1,62.1,30.18,South,180,2.2,3.5,62,0.00,CLR,SCT,0.00,0.0,WeatherDisplay:10.37,2013-07-17 06:31:00,
2013-07-17 01:36:00,76.3,62.3,30.18,ESE,112,2.0,3.8,62,0.00,CLR,SCT,0.00,0.0,WeatherDisplay:10.37,2013-07-17 06:36:00,
2013-07-17 01:41:00,76.1,61.7,30.18,SSE,158,2.4,3.5,61,0.00,CLR,SCT,0.00,0.0,WeatherDisplay:10.37,2013-07-17 06:41:00,
2013-07-17 01:46:00,76.3,62.3,30.18,SSE,158,2.2,3.3,62,0.00,CLR,SCT,0.00,0.0,WeatherDisplay:10.37,2013-07-17 06:46:00,
2013-07-17 01:51:00,76.3,62.3,30.18,SSE,158,2.4,3.5,62,0.00,CLR,SCT,0.00,0.0,WeatherDisplay:10.37,2013-07-17 06:51:00,
2013-07-17 01:56:00,76.1,62.1,30.18,SSW,202,0.0,1.1,62,0.00,CLR,SCT,0.00,0.0,WeatherDisplay:10.37,2013-07-17 06:56:00,
2013-07-17 02:01:00,76.1,61.7,30.18,SSE,158,1.4,2.2,61,0.00,CLR,SCT,0.00,0.0,WeatherDisplay:10.37,2013-07-17 07:01:00,
2013-07-17 02:06:00,76.1,62.1,30.18,WSW,248,1.1,1.4,62,0.00,CLR,SCT,0.00,0.0,WeatherDisplay:10.37,2013-07-17 07:06:00,
2013-07-17 02:12:00,76.1,62.1,30.18,SSE,158,0.9,2.3,62,0.00,CLR,SCT,0.00,0.0,WeatherDisplay:10.37,2013-07-17 07:12:00,
2013-07-17 02:17:00,75.9,61.5,30.18,South,180,1.1,2.3,61,0.00,CLR,SCT,0.00,0.0,WeatherDisplay:10.37,2013-07-17 07:17:00,
2013-07-17 02:22:00,75.9,61.5,30.18,ESE,112,0.0,0.0,61,0.00,CLR,SCT,0.00,0.0,WeatherDisplay:10.37,2013-07-17 07:22:00,
2013-07-17 02:27:00,75.7,60.9,30.18,East,90,1.1,1.4,60,0.00,CLR,SCT,0.00,0.0,WeatherDisplay:10.37,2013-07-17 07:27:00,
2013-07-17 02:32:00,75.7,60.9,30.18,East,90,1.1,2.3,60,0.00,CLR,SCT,0.00,0.0,WeatherDisplay:10.37,2013-07-17 07:32:00,
2013-07-17 02:37:00,75.6,60.7,30.15,East,90,1.1,1.6,60,0.00,CLR,SCT,0.00,0.0,WeatherDisplay:10.37,2013-07-17 07:37:00,
2013-07-17 02:42:00,75.4,61.0,30.15,East,90,1.4,1.6,61,0.00,CLR,SCT,0.00,0.0,WeatherDisplay:10.37,2013-07-17 07:42:00,
2013-07-17 02:48:00,75.4,61.0,30.15,ESE,112,0.0,1.1,61,0.00,CLR,SCT,0.00,0.0,WeatherDisplay:10.37,2013-07-17 07:48:00,
2013-07-17 02:53:00,75.2,60.8,30.18,ESE,112,0.0,1.1,61,0.00,CLR,SCT,0.00,0.0,WeatherDisplay:10.37,2013-07-17 07:53:00,
2013-07-17 02:58:00,75.2,60.8,30.18,ENE,68,1.4,1.4,61,0.00,CLR,SCT,0.00,0.0,WeatherDisplay:10.37,2013-07-17 07:58:00,
2013-07-17 03:03:00,75.2,60.8,30.18,East,90,0.0,1.1,61,0.00,CLR,SCT,0.00,0.0,WeatherDisplay:10.37,2013-07-17 08:03:00,
2013-07-17 03:08:00,75.0,61.1,30.18,East,90,0.0,0.0,62,0.00,CLR,SCT,0.00,0.0,WeatherDisplay:10.37,2013-07-17 08:08:00,
2013-07-17 03:13:00,75.0,60.7,30.18,East,90,0.0,0.0,61,0.00,CLR,SCT,0.00,0.0,WeatherDisplay:10.37,2013-07-17 08:13:00,
2013-07-17 03:18:00,75.0,60.7,30.18,ESE,112,1.1,1.4,61,0.00,CLR,SCT,0.00,0.0,WeatherDisplay:10.37,2013-07-17 08:18:00,
2013-07-17 03:24:00,74.8,60.9,30.18,East,90,0.0,0.0,62,0.00,CLR,SCT,0.00,0.0,WeatherDisplay:10.37,2013-07-17 08:24:00,
2013-07-17 03:29:00,74.7,60.8,30.18,East,90,0.0,0.0,62,0.00,CLR,SCT,0.00,0.0,WeatherDisplay:10.37,2013-07-17 08:29:00,
2013-07-17 03:34:00,74.7,60.8,30.18,East,90,0.0,0.0,62,0.00,CLR,SCT,0.00,0.0,WeatherDisplay:10.37,2013-07-17 08:34:00,
2013-07-17 03:39:00,74.5,60.6,30.15,East,90,0.0,1.4,62,0.00,CLR,SCT,0.00,0.0,WeatherDisplay:10.37,2013-07-17 08:39:00,
2013-07-17 03:44:00,74.3,60.9,30.15,East,90,0.0,0.0,63,0.00,CLR,SCT,0.00,0.0,WeatherDisplay:10.37,2013-07-17 08:44:00,
2013-07-17 03:49:00,74.3,60.9,30.15,East,90,0.0,0.0,63,0.00,CLR,SCT,0.00,0.0,WeatherDisplay:10.37,2013-07-17 08:49:00,
2013-07-17 03:54:00,74.3,60.9,30.18,ESE,112,1.1,1.4,63,0.00,CLR,SCT,0.00,0.0,WeatherDisplay:10.37,2013-07-17 08:54:00,
2013-07-17 03:59:00,74.3,61.3,30.18,ESE,112,0.0,1.1,64,0.00,CLR,SCT,0.00,0.0,WeatherDisplay:10.37,2013-07-17 08:59:00,
2013-07-17 04:05:00,74.3,61.3,30.18,East,90,1.1,2.3,64,0.00,CLR,SCT,0.00,0.0,WeatherDisplay:10.37,2013-07-17 09:05:00,
2013-07-17 04:10:00,74.3,61.3,30.18,East,90,1.4,2.3,64,0.00,CLR,SCT,0.00,0.0,WeatherDisplay:10.37,2013-07-17 09:10:00,
2013-07-17 04:15:00,74.3,61.8,30.18,East,90,1.6,2.3,65,0.00,CLR,SCT,0.00,0.0,WeatherDisplay:10.37,2013-07-17 09:15:00,
2013-07-17 04:20:00,74.3,61.8,30.18,ESE,112,1.1,2.2,65,0.00,CLR,SCT,0.00,0.0,WeatherDisplay:10.37,2013-07-17 09:20:00,
2013-07-17 04:25:00,74.3,61.8,30.18,ESE,112,0.0,1.1,65,0.00,CLR,SCT,0.00,0.0,WeatherDisplay:10.37,2013-07-17 09:25:00,
2013-07-17 04:30:00,74.3,62.2,30.18,South,180,0.0,1.1,66,0.00,CLR,SCT,0.00,0.0,WeatherDisplay:10.37,2013-07-17 09:30:00,
2013-07-17 04:35:00,74.3,62.2,30.18,South,180,0.9,1.4,66,0.00,CLR,SCT,0.00,0.0,WeatherDisplay:10.37,2013-07-17 09:35:00,
2013-07-17 04:40:00,74.3,62.2,30.18,SSE,158,1.6,2.4,66,0.00,CLR,SCT,0.00,0.0,WeatherDisplay:10.37,2013-07-17 09:40:00,
2013-07-17 04:46:00,74.3,62.2,30.18,ESE,112,1.6,2.6,66,0.00,CLR,SCT,0.00,0.0,WeatherDisplay:10.37,2013-07-17 09:46:00,
2013-07-17 04:51:00,74.3,62.2,30.15,ESE,112,1.1,2.4,66,0.00,CLR,SCT,0.00,0.0,WeatherDisplay:10.37,2013-07-17 09:51:00,
2013-07-17 04:56:00,74.1,62.0,30.15,ESE,112,1.6,2.6,66,0.00,CLR,SCT,0.00,0.0,WeatherDisplay:10.37,2013-07-17 09:56:00,
2013-07-17 05:01:00,74.3,62.6,30.15,SE,135,0.9,2.3,67,0.00,CLR,SCT,0.00,0.0,WeatherDisplay:10.37,2013-07-17 10:01:00,
2013-07-17 05:06:00,74.1,62.0,30.18,SSE,158,0.9,2.4,66,0.00,CLR,SCT,0.00,0.0,WeatherDisplay:10.37,2013-07-17 10:06:00,
2013-07-17 05:11:00,74.1,62.5,30.18,ESE,112,1.1,1.6,67,0.00,CLR,SCT,0.00,0.0,WeatherDisplay:10.37,2013-07-17 10:11:00,
2013-07-17 05:16:00,74.1,62.9,30.18,South,180,1.6,2.3,68,0.00,CLR,SCT,0.00,0.0,WeatherDisplay:10.37,2013-07-17 10:16:00,
2013-07-17 05:21:00,74.1,62.9,30.18,South,180,2.0,3.5,68,0.00,CLR,SCT,0.00,0.0,WeatherDisplay:10.37,2013-07-17 10:21:00,
2013-07-17 05:26:00,73.9,63.1,30.18,SSE,158,2.6,3.6,69,0.00,CLR,SCT,0.00,0.0,WeatherDisplay:10.37,2013-07-17 10:26:00,
2013-07-17 05:31:00,73.9,63.1,30.18,SSE,158,2.2,3.5,69,0.00,CLR,SCT,0.00,0.0,WeatherDisplay:10.37,2013-07-17 10:31:00,
2013-07-17 05:37:00,73.8,63.0,30.18,South,180,3.1,4.6,69,0.00,CLR,SCT,0.00,0.0,WeatherDisplay:10.37,2013-07-17 10:37:00,
2013-07-17 05:42:00,73.8,63.0,30.18,SSE,158,2.6,4.0,69,0.00,CLR,SCT,0.00,0.0,WeatherDisplay:10.37,2013-07-17 10:42:00,
2013-07-17 05:47:00,73.6,62.4,30.18,South,180,2.4,3.5,68,0.00,CLR,SCT,0.00,0.0,WeatherDisplay:10.37,2013-07-17 10:47:00,
2013-07-17 05:52:00,73.6,62.8,30.18,SSW,202,1.4,2.3,69,0.00,CLR,SCT,0.00,0.0,WeatherDisplay:10.37,2013-07-17 10:52:00,
2013-07-17 05:57:00,73.6,62.8,30.18,South,180,0.9,1.6,69,0.00,CLR,SCT,0.00,0.0,WeatherDisplay:10.37,2013-07-17 10:57:00,
2013-07-17 06:02:00,73.4,62.6,30.18,SE,135,0.0,1.1,69,0.00,OVC,SCT,0.00,0.0,WeatherDisplay:10.37,2013-07-17 11:02:00,
2013-07-17 06:07:00,73.2,62.0,30.18,SE,135,0.0,0.0,68,0.00,BKN,SCT,0.00,0.0,WeatherDisplay:10.37,2013-07-17 11:07:00,
2013-07-17 06:12:00,73.2,62.0,30.18,SE,135,0.0,0.0,68,0.00,BKN,SCT,0.00,0.0,WeatherDisplay:10.37,2013-07-17 11:12:00,
2013-07-17 06:18:00,73.0,61.9,30.18,SE,135,0.0,0.0,68,0.00,BKN,SCT,0.00,0.0,WeatherDisplay:10.37,2013-07-17 11:18:00,
2013-07-17 06:23:00,72.9,61.7,30.18,ESE,112,0.0,0.0,68,0.00,BKN,SCT,0.00,0.0,WeatherDisplay:10.37,2013-07-17 11:23:00,
2013-07-17 06:28:00,72.7,61.5,30.18,ENE,68,0.0,0.0,68,0.00,BKN,SCT,0.00,0.0,WeatherDisplay:10.37,2013-07-17 11:28:00,
2013-07-17 06:33:00,72.5,61.7,30.18,ENE,68,0.0,0.0,69,0.00,BKN,SCT,0.00,0.0,WeatherDisplay:10.37,2013-07-17 11:33:00,
2013-07-17 06:38:00,72.5,61.3,30.18,ENE,68,0.0,0.0,68,0.00,BKN,SCT,0.00,0.0,WeatherDisplay:10.37,2013-07-17 11:38:00,
2013-07-17 06:43:00,72.5,63.0,30.18,SSW,202,0.0,0.0,72,0.00,BKN,SCT,0.00,0.0,WeatherDisplay:10.37,2013-07-17 11:43:00,
2013-07-17 06:48:00,72.5,63.7,30.18,SSW,202,0.0,0.0,74,0.00,BKN,SCT,0.00,0.0,WeatherDisplay:10.37,2013-07-17 11:48:00,
2013-07-17 06:53:00,72.5,64.1,30.21,SW,225,0.0,1.1,75,0.00,BKN,SCT,0.00,0.0,WeatherDisplay:10.37,2013-07-17 11:53:00,
2013-07-17 06:59:00,72.5,63.4,30.21,SE,135,1.1,1.1,73,0.00,BKN,SCT,0.00,0.0,WeatherDisplay:10.37,2013-07-17 11:59:00,
2013-07-17 07:04:00,72.7,63.1,30.21,ESE,112,1.4,2.3,72,0.00,BKN,SCT,0.00,0.0,WeatherDisplay:10.37,2013-07-17 12:04:00,
2013-07-17 07:09:00,72.9,63.3,30.21,SSE,158,1.4,2.3,72,0.00,BKN,SCT,0.00,0.0,WeatherDisplay:10.37,2013-07-17 12:09:00,
2013-07-17 07:14:00,73.0,63.9,30.21,South,180,1.4,2.6,73,0.00,BKN,SCT,0.00,0.0,WeatherDisplay:10.37,2013-07-17 12:14:00,
2013-07-17 07:19:00,73.4,64.2,30.21,SSE,158,1.4,3.1,73,0.00,BKN,SCT,0.00,0.0,WeatherDisplay:10.37,2013-07-17 12:19:00,
2013-07-17 07:24:00,73.8,64.6,30.21,SSE,158,0.9,2.4,73,0.00,BKN,SCT,0.00,0.0,WeatherDisplay:10.37,2013-07-17 12:24:00,
2013-07-17 07:29:00,74.1,64.1,30.21,SSE,158,2.0,3.3,71,0.00,BKN,SCT,0.00,0.0,WeatherDisplay:10.37,2013-07-17 12:29:00,
2013-07-17 07:34:00,74.5,63.6,30.21,SW,225,2.6,3.5,69,0.00,BKN,SCT,0.00,0.0,WeatherDisplay:10.37,2013-07-17 12:34:00,
2013-07-17 07:40:00,74.8,63.6,30.21,SW,225,2.4,3.6,68,0.00,BKN,SCT,0.00,0.0,WeatherDisplay:10.37,2013-07-17 12:40:00,
2013-07-17 07:45:00,75.0,62.9,30.21,SW,225,2.6,2.6,66,0.00,BKN,SCT,0.00,0.0,WeatherDisplay:10.37,2013-07-17 12:45:00,
2013-07-17 07:50:00,75.4,62.8,30.21,South,180,2.2,2.4,65,0.00,BKN,SCT,0.00,0.0,WeatherDisplay:10.37,2013-07-17 12:50:00,
2013-07-17 07:55:00,75.7,62.7,30.21,South,180,2.2,2.3,64,0.00,BKN,SCT,0.00,0.0,WeatherDisplay:10.37,2013-07-17 12:55:00,
2013-07-17 08:00:00,75.9,62.9,30.21,SSW,202,2.6,4.6,64,0.00,BKN,SCT,0.00,0.0,WeatherDisplay:10.37,2013-07-17 13:00:00,
2013-07-17 08:05:00,76.3,62.8,30.21,WSW,248,1.6,3.5,63,0.00,OVC,SCT,0.00,0.0,WeatherDisplay:10.37,2013-07-17 13:05:00,
2013-07-17 08:10:00,76.5,62.0,30.21,SSW,202,2.0,3.5,61,0.00,OVC,SCT,0.00,0.0,WeatherDisplay:10.37,2013-07-17 13:10:00,
2013-07-17 08:15:00,76.8,62.3,30.21,SW,225,2.6,3.5,61,0.00,OVC,SCT,0.00,0.0,WeatherDisplay:10.37,2013-07-17 13:15:00,
2013-07-17 08:20:00,77.2,63.2,30.21,South,180,2.2,4.6,62,0.00,OVC,SCT,0.00,0.0,WeatherDisplay:10.37,2013-07-17 13:20:00,
2013-07-17 08:26:00,77.5,62.1,30.21,WSW,248,1.4,2.3,59,0.00,OVC,SCT,0.00,0.0,WeatherDisplay:10.37,2013-07-17 13:26:00,
2013-07-17 08:31:00,77.9,60.9,30.21,SSW,202,2.9,3.5,56,0.00,OVC,SCT,0.00,0.0,WeatherDisplay:10.37,2013-07-17 13:31:00,
2013-07-17 08:36:00,78.1,60.6,30.21,West,270,2.6,3.5,55,0.00,OVC,SCT,0.00,0.0,WeatherDisplay:10.37,2013-07-17 13:36:00,
2013-07-17 08:41:00,78.3,59.2,30.21,WSW,248,2.2,3.5,52,0.00,OVC,SCT,0.00,0.0,WeatherDisplay:10.37,2013-07-17 13:41:00,
2013-07-17 08:46:00,78.6,59.5,30.21,WSW,248,2.6,4.6,52,0.00,OVC,SCT,0.00,0.0,WeatherDisplay:10.37,2013-07-17 13:46:00,
2013-07-17 08:51:00,78.8,59.1,30.21,West,270,3.8,4.6,51,0.00,OVC,SCT,0.00,0.0,WeatherDisplay:10.37,2013-07-17 13:51:00,
2013-07-17 08:57:00,79.2,61.1,30.21,WSW,248,4.0,4.6,54,0.00,OVC,SCT,0.00,0.0,WeatherDisplay:10.37,2013-07-17 13:57:00,
2013-07-17 09:02:00,79.2,61.1,30.21,WNW,292,2.6,3.5,54,0.00,OVC,SCT,0.00,0.0,WeatherDisplay:10.37,2013-07-17 14:02:00,
2013-07-17 09:07:00,79.3,60.7,30.21,WSW,248,2.4,2.4,53,0.00,OVC,SCT,0.00,0.0,WeatherDisplay:10.37,2013-07-17 14:07:00,
2013-07-17 09:12:00,79.5,60.9,30.21,WSW,248,3.8,4.6,53,0.00,OVC,SCT,0.00,0.0,WeatherDisplay:10.37,2013-07-17 14:12:00,
2013-07-17 09:17:00,79.9,61.2,30.21,SW,225,2.4,2.6,53,0.00,OVC,SCT,0.00,0.0,WeatherDisplay:10.37,2013-07-17 14:17:00,
2013-07-17 09:23:00,80.2,61.6,30.21,SSW,202,2.2,3.6,53,0.00,OVC,SCT,0.00,0.0,WeatherDisplay:10.37,2013-07-17 14:23:00,
2013-07-17 09:28:00,80.6,60.2,30.21,WSW,248,2.9,5.8,50,0.00,OVC,SCT,0.00,100.0,WeatherDisplay:10.37,2013-07-17 14:28:00,
2013-07-17 09:33:00,80.4,60.1,30.21,SSW,202,1.6,3.5,50,0.00,OVC,SCT,0.00,100.0,WeatherDisplay:10.37,2013-07-17 14:33:00,
2013-07-17 09:38:00,80.8,59.3,30.21,SSW,202,2.4,3.5,48,0.00,OVC,SCT,0.00,100.0,WeatherDisplay:10.37,2013-07-17 14:38:00,
2013-07-17 09:43:00,81.3,62.0,30.21,NW,315,2.0,2.3,52,0.00,OVC,SCT,0.00,0.0,WeatherDisplay:10.37,2013-07-17 14:43:00,
2013-07-17 09:49:00,81.1,59.0,30.21,SSW,202,2.2,2.9,47,0.00,OVC,SCT,0.00,100.0,WeatherDisplay:10.37,2013-07-17 14:49:00,
2013-07-17 09:54:00,81.9,60.8,30.21,West,270,1.1,2.4,49,0.00,OVC,SCT,0.00,100.0,WeatherDisplay:10.37,2013-07-17 14:54:00,
2013-07-17 09:59:00,82.0,60.4,30.21,SW,225,0.0,1.1,48,0.00,OVC,SCT,0.00,100.0,WeatherDisplay:10.37,2013-07-17 14:59:00,
2013-07-17 10:04:00,82.4,58.9,30.21,SSE,158,2.2,2.9,45,0.00,OVC,SCT,0.00,100.0,WeatherDisplay:10.37,2013-07-17 15:04:00,
2013-07-17 10:09:00,82.4,59.5,30.21,South,180,2.9,3.5,46,0.00,OVC,SCT,0.00,100.0,WeatherDisplay:10.37,2013-07-17 15:09:00,
2013-07-17 10:14:00,82.8,59.3,30.21,South,180,2.9,3.5,45,0.00,OVC,SCT,0.00,100.0,WeatherDisplay:10.37,2013-07-17 15:14:00,
2013-07-17 10:20:00,83.1,60.8,30.21,SW,225,0.0,1.4,47,0.00,OVC,SCT,0.00,100.0,WeatherDisplay:10.37,2013-07-17 15:20:00,
2013-07-17 10:25:00,83.3,60.4,30.21,WNW,292,2.2,3.5,46,0.00,OVC,SCT,0.00,200.0,WeatherDisplay:10.37,2013-07-17 15:25:00,
2013-07-17 10:30:00,84.0,61.0,30.21,West,270,2.6,4.6,46,0.00,OVC,SCT,0.00,200.0,WeatherDisplay:10.37,2013-07-17 15:30:00,
2013-07-17 10:35:00,84.0,59.1,30.21,West,270,1.1,2.3,43,0.00,OVC,SCT,0.00,200.0,WeatherDisplay:10.37,2013-07-17 15:35:00,
2013-07-17 10:40:00,84.6,57.6,30.21,SSW,202,3.6,4.6,40,0.00,OVC,SCT,0.00,200.0,WeatherDisplay:10.37,2013-07-17 15:40:00,
2013-07-17 10:45:00,84.7,59.1,30.21,SW,225,2.2,3.5,42,0.00,OVC,SCT,0.00,200.0,WeatherDisplay:10.37,2013-07-17 15:45:00,
2013-07-17 10:50:00,85.3,59.6,30.21,ESE,112,0.0,2.3,42,0.00,OVC,SCT,0.00,200.0,WeatherDisplay:10.37,2013-07-17 15:50:00,
2013-07-17 10:55:00,85.8,60.1,30.21,West,270,3.8,4.6,42,0.00,OVC,SCT,0.00,200.0,WeatherDisplay:10.37,2013-07-17 15:55:00,
2013-07-17 11:00:00,85.6,57.8,30.21,WNW,292,3.8,4.6,39,0.00,OVC,SCT,0.00,200.0,WeatherDisplay:10.37,2013-07-17 16:00:00,
2013-07-17 11:05:00,86.0,58.2,30.21,WNW,292,2.6,4.0,39,0.00,OVC,SCT,0.00,300.0,WeatherDisplay:10.37,2013-07-17 16:05:00,
2013-07-17 11:10:00,85.8,58.0,30.21,WNW,292,2.9,4.6,39,0.00,OVC,SCT,0.00,300.0,WeatherDisplay:10.37,2013-07-17 16:10:00,
2013-07-17 11:16:00,86.5,59.3,30.21,SSE,158,2.9,4.6,40,0.00,OVC,SCT,0.00,300.0,WeatherDisplay:10.37,2013-07-17 16:16:00,
2013-07-17 11:21:00,86.7,58.8,30.21,SSE,158,2.6,3.5,39,0.00,OVC,SCT,0.00,300.0,WeatherDisplay:10.37,2013-07-17 16:21:00,
2013-07-17 11:26:00,86.5,57.9,30.21,WSW,248,2.6,2.6,38,0.00,OVC,SCT,0.00,300.0,WeatherDisplay:10.37,2013-07-17 16:26:00,
2013-07-17 11:31:00,86.9,58.2,30.21,ESE,112,1.6,3.5,38,0.00,OVC,SCT,0.00,300.0,WeatherDisplay:10.37,2013-07-17 16:31:00,
2013-07-17 11:36:00,87.3,58.6,30.21,SSE,158,3.1,4.6,38,0.00,OVC,SCT,0.00,300.0,WeatherDisplay:10.37,2013-07-17 16:36:00,
2013-07-17 11:41:00,87.3,57.0,30.21,WSW,248,3.3,4.6,36,0.00,OVC,SCT,0.00,300.0,WeatherDisplay:10.37,2013-07-17 16:41:00,
2013-07-17 11:46:00,87.3,53.8,30.21,WSW,248,4.0,4.6,32,0.00,OVC,SCT,0.00,300.0,WeatherDisplay:10.37,2013-07-17 16:46:00,
2013-07-17 11:51:00,87.3,53.8,30.21,WSW,248,3.3,5.8,32,0.00,OVC,SCT,0.00,400.0,WeatherDisplay:10.37,2013-07-17 16:51:00,
2013-07-17 11:56:00,87.6,55.8,30.21,WSW,248,3.8,6.7,34,0.00,OVC,SCT,0.00,400.0,WeatherDisplay:10.37,2013-07-17 16:56:00,
2013-07-17 12:01:00,87.4,54.8,30.21,WSW,248,3.3,6.9,33,0.00,OVC,SCT,0.00,400.0,WeatherDisplay:10.37,2013-07-17 17:01:00,
2013-07-17 12:07:00,87.4,54.8,30.21,West,270,7.6,8.1,33,0.00,OVC,SCT,0.00,400.0,WeatherDisplay:10.37,2013-07-17 17:07:00,
2013-07-17 12:12:00,87.8,55.9,30.21,SW,225,5.9,10.4,34,0.00,OVC,SCT,0.00,400.0,WeatherDisplay:10.37,2013-07-17 17:12:00,
2013-07-17 12:17:00,87.6,54.1,30.21,SSW,202,5.4,6.4,32,0.00,OVC,SCT,0.00,400.0,WeatherDisplay:10.37,2013-07-17 17:17:00,
2013-07-17 12:22:00,87.8,55.9,30.21,WSW,248,6.0,9.2,34,0.00,OVC,SCT,0.00,400.0,WeatherDisplay:10.37,2013-07-17 17:22:00,
2013-07-17 12:27:00,88.0,54.4,30.21,West,270,6.2,7.4,32,0.00,OVC,SCT,0.00,400.0,WeatherDisplay:10.37,2013-07-17 17:27:00,
2013-07-17 12:32:00,88.5,54.9,30.21,SW,225,5.4,6.9,32,0.00,OVC,SCT,0.00,400.0,WeatherDisplay:10.37,2013-07-17 17:32:00,
2013-07-17 12:37:00,88.3,55.6,30.21,West,270,6.2,9.0,33,0.00,OVC,SCT,0.00,200.0,WeatherDisplay:10.37,2013-07-17 17:37:00,
2013-07-17 12:42:00,88.9,56.1,30.21,WSW,248,4.9,6.9,33,0.00,OVC,SCT,0.00,400.0,WeatherDisplay:10.37,2013-07-17 17:42:00,
2013-07-17 12:47:00,88.3,57.2,30.21,SSW,202,4.7,6.9,35,0.00,OVC,SCT,0.00,400.0,WeatherDisplay:10.37,2013-07-17 17:47:00,
2013-07-17 12:53:00,87.6,55.0,30.21,SW,225,5.9,6.9,33,0.00,OVC,SCT,0.00,0.0,WeatherDisplay:10.37,2013-07-17 17:53:00,
2013-07-17 12:58:00,88.0,55.3,30.21,WSW,248,5.9,5.9,33,0.00,OVC,SCT,0.00,100.0,WeatherDisplay:10.37,2013-07-17 17:58:00,
2013-07-17 13:03:00,88.2,56.3,30.21,WNW,292,4.5,6.2,34,0.00,OVC,SCT,0.00,400.0,WeatherDisplay:10.37,2013-07-17 18:03:00,
2013-07-17 13:08:00,88.0,55.3,30.18,SSW,202,4.7,5.8,33,0.00,OVC,SCT,0.00,200.0,WeatherDisplay:10.37,2013-07-17 18:08:00,
2013-07-17 13:13:00,88.3,55.6,30.18,SW,225,3.3,8.1,33,0.00,OVC,SCT,0.00,400.0,WeatherDisplay:10.37,2013-07-17 18:13:00,
2013-07-17 13:18:00,88.7,56.7,30.18,WSW,248,4.3,4.3,34,0.00,OVC,SCT,0.00,400.0,WeatherDisplay:10.37,2013-07-17 18:18:00,
2013-07-17 13:24:00,89.6,58.3,30.18,WSW,248,5.6,6.9,35,0.00,OVC,SCT,0.00,300.0,WeatherDisplay:10.37,2013-07-17 18:24:00,
2013-07-17 13:29:00,88.5,54.9,30.18,WSW,248,5.9,6.9,32,0.00,OVC,SCT,0.00,100.0,WeatherDisplay:10.37,2013-07-17 18:29:00,
2013-07-17 13:34:00,89.1,57.8,30.18,WSW,248,4.3,6.9,35,0.00,OVC,SCT,0.00,400.0,WeatherDisplay:10.37,2013-07-17 18:34:00,
2013-07-17 13:39:00,89.4,56.5,30.15,SSE,158,4.9,6.9,33,0.00,OVC,SCT,0.00,400.0,WeatherDisplay:10.37,2013-07-17 18:39:00,
2013-07-17 13:44:00,89.6,55.8,30.15,SSE,158,4.3,5.8,32,0.00,OVC,SCT,0.00,400.0,WeatherDisplay:10.37,2013-07-17 18:44:00,
2013-07-17 13:49:00,88.2,54.6,30.15,SSW,202,3.3,6.9,32,0.00,OVC,SCT,0.00,0.0,WeatherDisplay:10.37,2013-07-17 18:49:00,
2013-07-17 13:55:00,88.3,56.4,30.18,WNW,292,2.6,3.5,34,0.00,OVC,SCT,0.00,100.0,WeatherDisplay:10.37,2013-07-17 18:55:00,
2013-07-17 14:00:00,88.7,55.9,30.18,West,270,5.9,6.0,33,0.00,OVC,SCT,0.00,100.0,WeatherDisplay:10.37,2013-07-17 19:00:00,
2013-07-17 14:05:00,89.2,54.6,30.18,WSW,248,4.5,5.9,31,0.00,OVC,SCT,0.00,400.0,WeatherDisplay:10.37,2013-07-17 19:05:00,
2013-07-17 14:10:00,89.2,55.5,30.18,WSW,248,4.3,5.8,32,0.00,OVC,SCT,0.00,400.0,WeatherDisplay:10.37,2013-07-17 19:10:00,
2013-07-17 14:15:00,89.8,55.1,30.18,SSW,202,4.7,5.8,31,0.00,OVC,SCT,0.00,300.0,WeatherDisplay:10.37,2013-07-17 19:15:00,
2013-07-17 14:20:00,90.3,56.5,30.18,SSE,158,4.3,6.9,32,0.00,OVC,SCT,0.00,300.0,WeatherDisplay:10.37,2013-07-17 19:20:00,
2013-07-17 14:26:00,90.1,55.4,30.18,SSE,158,5.4,7.1,31,0.00,OVC,SCT,0.00,200.0,WeatherDisplay:10.37,2013-07-17 19:26:00,
2013-07-17 14:31:00,90.5,56.6,30.18,South,180,3.1,4.6,32,0.00,OVC,SCT,0.00,100.0,WeatherDisplay:10.37,2013-07-17 19:31:00,
2013-07-17 14:36:00,90.0,56.1,30.18,SSE,158,3.1,4.3,32,0.00,OVC,SCT,0.00,100.0,WeatherDisplay:10.37,2013-07-17 19:36:00,
2013-07-17 14:41:00,89.6,55.8,30.18,South,180,4.0,5.8,32,0.00,OVC,SCT,0.00,400.0,WeatherDisplay:10.37,2013-07-17 19:41:00,
2013-07-17 14:46:00,89.4,55.7,30.18,South,180,4.0,6.9,32,0.00,OVC,SCT,0.00,100.0,WeatherDisplay:10.37,2013-07-17 19:46:00,
2013-07-17 14:52:00,89.2,55.5,30.18,East,90,3.8,5.8,32,0.00,OVC,SCT,0.00,400.0,WeatherDisplay:10.37,2013-07-17 19:52:00,
2013-07-17 14:57:00,90.0,55.3,30.18,SSW,202,4.9,6.9,31,0.00,OVC,SCT,0.00,100.0,WeatherDisplay:10.37,2013-07-17 19:57:00,
2013-07-17 15:02:00,90.1,55.4,30.18,ESE,112,3.6,4.6,31,0.00,OVC,SCT,0.00,0.0,WeatherDisplay:10.37,2013-07-17 20:02:00,
2013-07-17 15:07:00,90.5,55.7,30.15,WNW,292,5.9,5.9,31,0.00,OVC,SCT,0.00,400.0,WeatherDisplay:10.37,2013-07-17 20:07:00,
2013-07-17 15:12:00,90.9,56.0,30.15,SSE,158,3.6,7.6,31,0.00,OVC,SCT,0.00,300.0,WeatherDisplay:10.37,2013-07-17 20:12:00,
2013-07-17 15:18:00,90.7,55.0,30.15,ESE,112,6.2,8.1,30,0.00,OVC,SCT,0.00,300.0,WeatherDisplay:10.37,2013-07-17 20:18:00,
2013-07-17 15:23:00,91.0,55.3,30.15,South,180,5.9,8.1,30,0.00,OVC,SCT,0.00,300.0,WeatherDisplay:10.37,2013-07-17 20:23:00,
2013-07-17 15:28:00,90.9,55.1,30.15,South,180,5.4,8.1,30,0.00,OVC,SCT,0.00,300.0,WeatherDisplay:10.37,2013-07-17 20:28:00,
2013-07-17 15:33:00,91.0,54.4,30.15,SSW,202,5.4,9.2,29,0.00,OVC,SCT,0.00,300.0,WeatherDisplay:10.37,2013-07-17 20:33:00,
2013-07-17 15:38:00,91.6,55.8,30.15,SSW,202,5.6,9.2,30,0.00,OVC,SCT,0.00,300.0,WeatherDisplay:10.37,2013-07-17 20:38:00,
2013-07-17 15:43:00,91.2,54.5,30.15,WSW,248,3.6,5.6,29,0.00,OVC,SCT,0.00,0.0,WeatherDisplay:10.37,2013-07-17 20:43:00,
2013-07-17 15:49:00,90.9,55.1,30.15,SSW,202,3.6,4.6,30,0.00,OVC,SCT,0.00,300.0,WeatherDisplay:10.37,2013-07-17 20:49:00,
2013-07-17 15:54:00,91.4,55.6,30.15,East,90,3.3,5.8,30,0.00,OVC,SCT,0.00,300.0,WeatherDisplay:10.37,2013-07-17 20:54:00,
2013-07-17 15:59:00,91.9,55.1,30.15,WSW,248,4.7,5.8,29,0.00,OVC,SCT,0.00,100.0,WeatherDisplay:10.37,2013-07-17 20:59:00,
2013-07-17 16:04:00,92.3,56.4,30.15,WSW,248,3.3,4.6,30,0.00,OVC,SCT,0.00,300.0,WeatherDisplay:10.37,2013-07-17 21:04:00,
2013-07-17 16:05:00,92.3,56.4,30.12,SSE,158,3.3,5.4,30,0.00,OVC,SCT,0.00,300.0,WeatherDisplay:10.37,2013-07-17 21:05:00,
2013-07-17 16:11:00,91.9,55.1,30.12,ESE,112,3.3,5.8,29,0.00,OVC,SCT,0.00,200.0,WeatherDisplay:10.37,2013-07-17 21:11:00,
2013-07-17 16:16:00,91.0,53.4,30.12,SSW,202,5.6,8.1,28,0.00,OVC,SCT,0.00,200.0,WeatherDisplay:10.37,2013-07-17 21:16:00,
2013-07-17 16:21:00,91.4,54.7,30.12,SW,225,5.6,8.5,29,0.00,OVC,SCT,0.00,200.0,WeatherDisplay:10.37,2013-07-17 21:21:00,
2013-07-17 16:26:00,91.8,54.0,30.12,SSW,202,3.3,5.8,28,0.00,OVC,SCT,0.00,200.0,WeatherDisplay:10.37,2013-07-17 21:26:00,
2013-07-17 16:31:00,92.1,55.3,30.12,SSW,202,5.6,7.4,29,0.00,OVC,SCT,0.00,200.0,WeatherDisplay:10.37,2013-07-17 21:31:00,
2013-07-17 16:37:00,91.6,54.8,30.12,SSW,202,6.7,9.2,29,0.00,OVC,SCT,0.00,200.0,WeatherDisplay:10.37,2013-07-17 21:37:00,
2013-07-17 16:42:00,92.1,55.3,30.12,SSE,158,3.8,4.6,29,0.00,OVC,SCT,0.00,200.0,WeatherDisplay:10.37,2013-07-17 21:42:00,
2013-07-17 16:47:00,92.1,55.3,30.12,SSW,202,6.9,11.5,29,0.00,OVC,SCT,0.00,200.0,WeatherDisplay:10.37,2013-07-17 21:47:00,
2013-07-17 16:52:00,90.7,54.1,30.12,South,180,4.0,5.8,29,0.00,OVC,SCT,0.00,0.0,WeatherDisplay:10.37,2013-07-17 21:52:00,
2013-07-17 16:58:00,90.9,55.1,30.12,SSE,158,5.4,6.9,30,0.00,OVC,SCT,0.00,100.0,WeatherDisplay:10.37,2013-07-17 21:58:00,
2013-07-17 17:03:00,91.4,54.7,30.12,WNW,292,4.0,5.9,29,0.00,OVC,SCT,0.00,200.0,WeatherDisplay:10.37,2013-07-17 22:03:00,
2013-07-17 17:08:00,91.0,55.3,30.12,ESE,112,4.9,8.1,30,0.00,OVC,SCT,0.00,0.0,WeatherDisplay:10.37,2013-07-17 22:08:00,
2013-07-17 17:13:00,90.1,54.5,30.12,SSW,202,3.8,8.1,30,0.00,OVC,SCT,0.00,0.0,WeatherDisplay:10.37,2013-07-17 22:13:00,
2013-07-17 17:18:00,88.9,54.3,30.12,SSW,202,3.8,5.8,31,0.00,OVC,SCT,0.00,0.0,WeatherDisplay:10.37,2013-07-17 22:18:00,
2013-07-17 17:23:00,88.5,54.0,30.12,ESE,112,3.8,6.0,31,0.00,OVC,SCT,0.00,0.0,WeatherDisplay:10.37,2013-07-17 22:23:00,
2013-07-17 17:28:00,88.7,55.9,30.12,South,180,3.8,6.9,33,0.00,OVC,SCT,0.00,100.0,WeatherDisplay:10.37,2013-07-17 22:28:00,
2013-07-17 17:34:00,89.1,56.2,30.12,SSE,158,6.0,8.1,33,0.00,OVC,SCT,0.00,100.0,WeatherDisplay:10.37,2013-07-17 22:34:00,
2013-07-17 17:39:00,89.4,57.4,30.12,ESE,112,3.1,10.5,34,0.00,OVC,SCT,0.00,0.0,WeatherDisplay:10.37,2013-07-17 22:39:00,
2013-07-17 17:44:00,89.6,56.7,30.12,South,180,3.3,5.8,33,0.00,OVC,SCT,0.00,0.0,WeatherDisplay:10.37,2013-07-17 22:44:00,
2013-07-17 17:49:00,89.8,56.8,30.12,ESE,112,4.0,5.8,33,0.00,OVC,SCT,0.00,0.0,WeatherDisplay:10.37,2013-07-17 22:49:00,
2013-07-17 17:54:00,90.0,57.0,30.12,ESE,112,3.3,3.8,33,0.00,OVC,SCT,0.00,0.0,WeatherDisplay:10.37,2013-07-17 22:54:00,
2013-07-17 17:59:00,90.0,56.1,30.12,SSE,158,3.6,5.4,32,0.00,OVC,SCT,0.00,0.0,WeatherDisplay:10.37,2013-07-17 22:59:00,
2013-07-17 18:04:00,89.8,56.0,30.12,SSW,202,4.3,6.9,32,0.00,OVC,SCT,0.00,0.0,WeatherDisplay:10.37,2013-07-17 23:04:00,
2013-07-17 18:09:00,89.8,55.1,30.12,South,180,5.6,6.9,31,0.00,OVC,SCT,0.00,0.0,WeatherDisplay:10.37,2013-07-17 23:09:00,
2013-07-17 18:15:00,89.8,56.0,30.12,South,178,3.0,7.0,32,0.00,OVC,SCT,0.00,0.0,WeatherDisplay:10.37,2013-07-17 23:15:00,
2013-07-17 18:20:00,89.6,56.7,30.12,ESE,112,3.6,5.9,33,0.00,OVC,SCT,0.00,0.0,WeatherDisplay:10.37,2013-07-17 23:20:00,
2013-07-17 18:25:00,89.4,57.4,30.12,SSE,158,3.1,3.5,34,0.00,OVC,SCT,0.00,0.0,WeatherDisplay:10.37,2013-07-17 23:25:00,
2013-07-17 18:30:00,89.4,56.5,30.12,SSE,158,4.0,6.9,33,0.00,OVC,SCT,0.00,0.0,WeatherDisplay:10.37,2013-07-17 23:30:00,
2013-07-17 18:35:00,89.4,56.5,30.12,ESE,112,4.5,6.0,33,0.00,OVC,SCT,0.00,0.0,WeatherDisplay:10.37,2013-07-17 23:35:00,
2013-07-17 18:41:00,89.4,56.5,30.12,SSW,202,3.8,5.8,33,0.00,OVC,SCT,0.00,0.0,WeatherDisplay:10.37,2013-07-17 23:41:00,
2013-07-17 18:46:00,89.1,56.2,30.12,ESE,112,4.3,5.8,33,0.00,OVC,SCT,0.00,0.0,WeatherDisplay:10.37,2013-07-17 23:46:00,
2013-07-17 18:51:00,88.9,55.2,30.12,SSE,158,4.5,7.1,32,0.00,OVC,SCT,0.00,0.0,WeatherDisplay:10.37,2013-07-17 23:51:00,
2013-07-17 18:56:00,88.7,55.9,30.12,SSE,158,3.6,4.6,33,0.00,OVC,SCT,0.00,0.0,WeatherDisplay:10.37,2013-07-17 23:56:00,
2013-07-17 19:01:00,88.9,56.9,30.12,SSE,158,2.9,4.3,34,0.00,OVC,SCT,0.00,0.0,WeatherDisplay:10.37,2013-07-18 00:01:00,
2013-07-17 19:07:00,88.9,56.9,30.12,East,90,4.0,6.9,34,0.00,OVC,SCT,0.00,0.0,WeatherDisplay:10.37,2013-07-18 00:07:00,
2013-07-17 19:12:00,88.5,55.7,30.12,ENE,68,4.7,6.0,33,0.00,OVC,SCT,0.00,0.0,WeatherDisplay:10.37,2013-07-18 00:12:00,
2013-07-17 19:17:00,88.3,55.6,30.12,ESE,112,4.0,5.8,33,0.00,OVC,SCT,0.00,0.0,WeatherDisplay:10.37,2013-07-18 00:17:00,
2013-07-17 19:22:00,88.2,56.3,30.12,ESE,112,3.1,4.7,34,0.00,OVC,SCT,0.00,0.0,WeatherDisplay:10.37,2013-07-18 00:22:00,
2013-07-17 19:27:00,88.2,56.3,30.12,ESE,112,2.6,3.6,34,0.00,OVC,SCT,0.00,0.0,WeatherDisplay:10.37,2013-07-18 00:27:00,
2013-07-17 19:32:00,88.0,56.9,30.12,ESE,112,2.2,2.9,35,0.00,OVC,SCT,0.00,0.0,WeatherDisplay:10.37,2013-07-18 00:32:00,
2013-07-17 19:37:00,87.8,57.5,30.12,SSE,158,2.9,4.6,36,0.00,OVC,SCT,0.00,0.0,WeatherDisplay:10.37,2013-07-18 00:37:00,
2013-07-17 19:43:00,87.4,57.2,30.12,SE,135,4.7,5.8,36,0.00,OVC,SCT,0.00,0.0,WeatherDisplay:10.37,2013-07-18 00:43:00,
2013-07-17 19:48:00,87.3,57.8,30.12,SE,135,3.3,4.6,37,0.00,OVC,SCT,0.00,0.0,WeatherDisplay:10.37,2013-07-18 00:48:00,
2013-07-17 19:53:00,87.1,58.4,30.12,ENE,68,2.0,3.5,38,0.00,OVC,SCT,0.00,0.0,WeatherDisplay:10.37,2013-07-18 00:53:00,
2013-07-17 19:58:00,86.7,58.8,30.12,SE,135,2.9,3.6,39,0.00,OVC,SCT,0.00,0.0,WeatherDisplay:10.37,2013-07-18 00:58:00,
2013-07-17 20:03:00,86.5,58.6,30.12,East,90,2.4,3.5,39,0.00,OVC,SCT,0.00,0.0,WeatherDisplay:10.37,2013-07-18 01:03:00,
2013-07-17 20:09:00,86.4,58.5,30.12,South,180,3.8,5.8,39,0.00,OVC,SCT,0.00,0.0,WeatherDisplay:10.37,2013-07-18 01:09:00,
2013-07-17 20:14:00,86.2,59.0,30.12,SSE,158,3.8,4.6,40,0.00,OVC,SCT,0.00,0.0,WeatherDisplay:10.37,2013-07-18 01:14:00,
2013-07-17 20:19:00,86.0,58.9,30.12,SE,135,3.1,5.8,40,0.00,OVC,SCT,0.00,0.0,WeatherDisplay:10.37,2013-07-18 01:19:00,
2013-07-17 20:24:00,85.8,59.4,30.12,SSE,158,2.4,3.8,41,0.00,OVC,SCT,0.00,0.0,WeatherDisplay:10.37,2013-07-18 01:24:00,
2013-07-17 20:29:00,85.6,59.2,30.12,SW,225,2.9,3.5,41,0.00,OVC,SCT,0.00,0.0,WeatherDisplay:10.37,2013-07-18 01:29:00,
2013-07-17 20:35:00,85.3,58.9,30.12,SSE,158,2.2,3.6,41,0.00,OVC,SCT,0.00,0.0,WeatherDisplay:10.37,2013-07-18 01:35:00,
2013-07-17 20:40:00,85.1,58.8,30.12,ESE,112,3.1,3.6,41,0.00,OVC,SCT,0.00,0.0,WeatherDisplay:10.37,2013-07-18 01:40:00,
2013-07-17 20:45:00,84.7,58.4,30.12,East,90,2.4,4.0,41,0.00,OVC,SCT,0.00,0.0,WeatherDisplay:10.37,2013-07-18 01:45:00,
2013-07-17 20:51:00,84.6,58.3,30.09,SSE,158,4.0,5.8,41,0.00,OVC,SCT,0.00,0.0,WeatherDisplay:10.37,2013-07-18 01:51:00,
2013-07-17 20:56:00,84.4,58.8,30.09,ESE,112,2.6,4.0,42,0.00,OVC,SCT,0.00,0.0,WeatherDisplay:10.37,2013-07-18 01:56:00,
2013-07-17 21:01:00,84.2,58.6,30.09,ESE,112,3.1,3.6,42,0.00,CLR,SCT,0.00,0.0,WeatherDisplay:10.37,2013-07-18 02:01:00,
2013-07-17 21:06:00,83.8,59.0,30.12,East,90,2.6,5.8,43,0.00,CLR,SCT,0.00,0.0,WeatherDisplay:10.37,2013-07-18 02:06:00,
2013-07-17 21:11:00,83.7,58.8,30.12,ENE,68,2.6,3.5,43,0.00,CLR,SCT,0.00,0.0,WeatherDisplay:10.37,2013-07-18 02:11:00,
2013-07-17 21:17:00,83.5,58.6,30.12,SSE,158,2.6,3.5,43,0.00,CLR,SCT,0.00,0.0,WeatherDisplay:10.37,2013-07-18 02:17:00,
2013-07-17 21:22:00,83.3,59.1,30.09,ESE,112,3.1,3.5,44,0.00,CLR,SCT,0.00,0.0,WeatherDisplay:10.37,2013-07-18 02:22:00,
2013-07-17 21:27:00,83.1,58.9,30.09,ESE,112,2.2,3.5,44,0.00,CLR,SCT,0.00,0.0,WeatherDisplay:10.37,2013-07-18 02:27:00,
2013-07-17 21:32:00,82.8,59.3,30.09,ESE,112,2.6,4.6,45,0.00,CLR,SCT,0.00,0.0,WeatherDisplay:10.37,2013-07-18 02:32:00,
2013-07-17 21:37:00,82.6,59.1,30.09,East,90,2.9,3.6,45,0.00,CLR,SCT,0.00,0.0,WeatherDisplay:10.37,2013-07-18 02:37:00,
2013-07-17 21:42:00,82.4,58.9,30.09,ESE,112,2.6,3.5,45,0.00,CLR,SCT,0.00,0.0,WeatherDisplay:10.37,2013-07-18 02:42:00,
2013-07-17 21:47:00,82.2,59.4,30.09,SE,135,2.4,3.5,46,0.00,CLR,SCT,0.00,0.0,WeatherDisplay:10.37,2013-07-18 02:47:00,
2013-07-17 21:52:00,82.0,59.8,30.09,SSE,158,2.0,3.5,47,0.00,CLR,SCT,0.00,0.0,WeatherDisplay:10.37,2013-07-18 02:52:00,
2013-07-17 21:57:00,81.9,60.2,30.09,SSE,158,2.0,4.6,48,0.00,CLR,SCT,0.00,0.0,WeatherDisplay:10.37,2013-07-18 02:57:00,
2013-07-17 22:02:00,81.7,60.1,30.09,ESE,112,2.4,3.5,48,0.00,CLR,SCT,0.00,0.0,WeatherDisplay:10.37,2013-07-18 03:02:00,
2013-07-17 22:08:00,81.5,60.5,30.12,ESE,112,2.4,2.9,49,0.00,CLR,SCT,0.00,0.0,WeatherDisplay:10.37,2013-07-18 03:08:00,
2013-07-17 22:13:00,81.3,61.5,30.12,SSW,202,2.2,2.6,51,0.00,CLR,SCT,0.00,0.0,WeatherDisplay:10.37,2013-07-18 03:13:00,
2013-07-17 22:18:00,81.1,60.7,30.12,SE,135,2.0,3.5,50,0.00,CLR,SCT,0.00,0.0,WeatherDisplay:10.37,2013-07-18 03:18:00,
2013-07-17 22:23:00,81.0,61.1,30.12,ESE,112,2.4,2.4,51,0.00,CLR,SCT,0.00,0.0,WeatherDisplay:10.37,2013-07-18 03:23:00,
2013-07-17 22:26:00,81.0,61.7,30.12,ENE,68,2.0,2.3,52,0.00,CLR,SCT,0.00,0.0,WeatherDisplay:10.37,2013-07-18 03:26:00,
2013-07-17 22:31:00,80.8,61.5,30.12,SSW,202,2.2,3.3,52,0.00,CLR,SCT,0.00,0.0,WeatherDisplay:10.37,2013-07-18 03:31:00,
2013-07-17 22:36:00,80.8,62.1,30.12,South,180,3.3,4.6,53,0.00,CLR,SCT,0.00,0.0,WeatherDisplay:10.37,2013-07-18 03:36:00,
2013-07-17 22:41:00,80.6,61.9,30.12,South,180,2.0,4.6,53,0.00,CLR,SCT,0.00,0.0,WeatherDisplay:10.37,2013-07-18 03:41:00,
2013-07-17 22:46:00,80.6,61.9,30.12,ESE,112,4.0,5.8,53,0.00,CLR,SCT,0.00,0.0,WeatherDisplay:10.37,2013-07-18 03:46:00,
2013-07-17 22:51:00,80.4,62.2,30.12,SW,225,2.2,3.5,54,0.00,CLR,SCT,0.00,0.0,WeatherDisplay:10.37,2013-07-18 03:51:00,
2013-07-17 22:56:00,80.4,61.7,30.12,South,180,2.2,4.6,53,0.00,CLR,SCT,0.00,0.0,WeatherDisplay:10.37,2013-07-18 03:56:00,
2013-07-17 23:01:00,80.2,62.1,30.12,South,180,3.1,3.5,54,0.00,CLR,SCT,0.00,0.0,WeatherDisplay:10.37,2013-07-18 04:01:00,
2013-07-17 23:02:00,80.1,61.9,30.12,WSW,248,2.4,3.5,54,0.00,CLR,SCT,0.00,0.0,WeatherDisplay:10.37,2013-07-18 04:02:00,
2013-07-17 23:03:00,80.1,62.4,30.12,South,180,2.6,3.6,55,0.00,CLR,SCT,0.00,0.0,WeatherDisplay:10.37,2013-07-18 04:03:00,
2013-07-17 23:08:00,79.9,61.7,30.12,South,180,2.2,3.5,54,0.00,CLR,SCT,0.00,0.0,WeatherDisplay:10.37,2013-07-18 04:08:00,
2013-07-17 23:13:00,79.7,62.6,30.12,SE,135,1.6,2.4,56,0.00,CLR,SCT,0.00,0.0,WeatherDisplay:10.37,2013-07-18 04:13:00,
2013-07-17 23:19:00,79.5,62.4,30.12,ENE,68,3.3,4.6,56,0.00,CLR,SCT,0.00,0.0,WeatherDisplay:10.37,2013-07-18 04:19:00,
2013-07-17 23:24:00,79.3,62.3,30.12,ESE,112,3.1,4.6,56,0.00,CLR,SCT,0.00,0.0,WeatherDisplay:10.37,2013-07-18 04:24:00,
2013-07-17 23:29:00,79.2,62.6,30.12,ESE,112,3.3,4.6,57,0.00,CLR,SCT,0.00,0.0,WeatherDisplay:10.37,2013-07-18 04:29:00,
2013-07-17 23:34:00,79.0,62.4,30.12,SSE,158,2.0,2.3,57,0.00,CLR,SCT,0.00,0.0,WeatherDisplay:10.37,2013-07-18 04:34:00,
2013-07-17 23:39:00,78.8,62.8,30.12,SSE,158,2.0,3.5,58,0.00,CLR,SCT,0.00,0.0,WeatherDisplay:10.37,2013-07-18 04:39:00,
2013-07-17 23:45:00,78.8,62.3,30.12,SE,131,2.0,6.0,57,0.00,CLR,SCT,0.00,0.0,WeatherDisplay:10.37,2013-07-18 04:45:00,
2013-07-17 23:50:00,78.6,62.6,30.12,ESE,112,2.4,3.5,58,0.00,CLR,SCT,0.00,0.0,WeatherDisplay:10.37,2013-07-18 04:50:00,
2013-07-17 23:55:00,78.6,62.6,30.12,SSE,158,2.0,4.6,58,0.00,CLR,SCT,0.00,0.0,WeatherDisplay:10.37,2013-07-18 04:55:00,